Location: Mococo
(38.0255°N, 122.1161°W)
Time: 00:19:14
(UTC+00:00)

Cosmos 2100 Rocket - Pass Details

Date: 13 February 2026
Orbit: 954 x 1001 km, 82.9° (Epoch: 9 March)

Event Time Altitude Azimuth Distance (km) Brightness Sun altitude
Rises 14:04:47 0° 180° (S) 3,707 7.1 -11.6°
Reaches altitude 10° 14:07:18 10° 179° (S) 2,761 6.5 -11.1°
Maximum altitude 14:13:38 77° 95° (E) 1,026 4.3 -9.9°
Drops below altitude 10° 14:19:59 10° 10° (N) 2,765 6.4 -8.6°
Sets 14:22:31 0° 9° (N) 3,712 7.0 -8.1°
